Regional Weather Roundup
Issued by NWS

Home | Current Version | Previous Version | Text Only | Print | Product List | Glossary On
Versions: 1 2 3 4 5 6 7 8 9 10 11 12 13 14 15 16 17 18 19 20 21 22 23 24 25 26 27 28 29 30 31 32 33 34 35 36 37 38 39 40 41 42 43 44 45 46 47 48 49 50
000
ASUS46 KSTO 050704
RWRCA

NORTHERN AND CENTRAL CA REGIONAL WEATHER ROUNDUP
NATIONAL WEATHER SERVICE SACRAMENTO CA
1200 AM PDT WED AUG 05 2015

NOTE: FAIR INDICATES FEW OR NO CLOUDS BELOW 12,000 FEET WITH NO
SIGNIFICANT WEATHER AND/OR OBSTRUCTIONS TO VISIBILITY.

CAZ001-003-050800-
NORTHWEST AREA

CITY           SKY/WX    TMP DP  RH WIND       PRES   REMARKS
CRESCENT CITY  CLOUDY    60  57  89 NW5       30.06R FOG
UKIAH          CLEAR     60  54  80 CALM      30.02S
$$

CAZ006-505>513-050800-
BAY AREA

CITY           SKY/WX    TMP DP  RH WIND       PRES   REMARKS
SANTA ROSA     CLEAR     57  54  89 CALM      30.00S
SAN RAFAEL     N/A       63  MM  MM MISG
NAPA           CLEAR     60  56  86 W10       30.00S
CONCORD        CLEAR     64  54  69 SW8       30.01S
OAKLAND CITY   N/A       65  MM  MM MISG
OAKLAND        PTCLDY    65  54  67 W10       30.01F
SAN FRAN CITY  N/A       63  MM  82 MISG
SAN FRAN ARPT  PTCLDY    64  54  69 W8        30.02S
LIVERMORE      PTCLDY    64  53  67 W6        30.01S
HAYWARD        CLEAR     64  54  69 W7        30.01F
REDWOOD CITY   N/A       MM  MM  MM MISG
MOFFETT ARPT   CLEAR     65  55  70 NW6       30.02S
SAN JOSE ARPT  MOCLDY    64  55  72 NW6       30.01F
$$
CAZ034-037-514>518-050800-
CENTRAL COAST

CITY           SKY/WX    TMP DP  RH WIND       PRES   REMARKS
WATSONVILLE    PTCLDY    62  57  83 CALM      30.02F
SALINAS        MOCLDY    64  56  75 CALM      30.02F
MONTEREY       MOCLDY    63  56  78 SE3       30.03F
SAN LUIS OBISP CLEAR     62  57  83 NW6       30.01S
SANTA MARIA    PTCLDY    61  58  90 W3        30.01F
$$
CAZ015-016-050800-
NORTHERN SACRAMENTO VALLEY

CITY           SKY/WX    TMP DP  RH WIND       PRES   REMARKS
REDDING        PTCLDY    71  54  54 CALM      29.96S
RED BLUFF      MOCLDY    72  59  63 S6        29.97S
OROVILLE       PTCLDY    70  54  56 S10       29.99R
$$
CAZ016>018-050800-
SOUTHERN SACRAMENTO VALLEY

CITY           SKY/WX    TMP DP  RH WIND       PRES   REMARKS
AUBURN         CLEAR     63  52  67 SE6       30.02S
BEALE AFB      CLEAR     66  53  62 S6        29.96R
LINCOLN        FAIR      64  52  63 SE8       29.96F
MARYSVILLE     CLEAR     65  54  67 SE8       29.97S
SAC INTL ARPT  CLEAR     63  55  75 S13       29.96S
MATHER AIRPORT NOT AVBL
DOWNTOWN SAC   N/A       65  MM  MM MISG
SAC EXEC ARPT  CLEAR     64  55  72 S9        29.97S
VACAVILLE      CLEAR     67  55  65 CALM      29.96S
TRAVIS AFB     CLEAR     61  56  83 SW18      29.95S
$$
CAZ019>021-050800-
SAN JOAQUIN VALLEY

CITY           SKY/WX    TMP DP  RH WIND       PRES   REMARKS
STOCKTON       PTCLDY    64  53  67 W10       30.00R
MODESTO        CLEAR     67  51  56 NW10      29.98S
MERCED         PTCLDY    66  54  65 NW6       29.98R
LEMOORE        PTCLDY    70  51  51 NW13      29.97S
FRESNO         PTCLDY    71  55  56 NW13      29.97R
HANFORD        CLEAR     71  55  56 NW13      29.97R
PORTERVILLE    CLEAR     70  57  64 CALM      29.98R
BAKERSFIELD    PTCLDY    75  56  51 NW9       29.96R
$$
CAZ011-012-071-050800-
NORTHERN MOUNTAINS

CITY           SKY/WX    TMP DP  RH WIND       PRES   REMARKS
YREKA          CLOUDY    70  49  47 SW7       30.02S HAZE
MOUNT SHASTA   MOCLDY    61  50  67 CALM      30.07S
ALTURAS        PTCLDY    62  42  47 SE5       30.08S
$$
CAZ011-012-071-050800-
SIERRA NEVADA MTNS

CITY           SKY/WX    TMP DP  RH WIND       PRES   REMARKS
BLUE CANYON    CLEAR     59  48  67 NW3       30.17S
TRUCKEE        PTCLDY    52  43  71 CALM      30.17S
TAHOE VLY ARPT PTCLDY    53  43  68 CALM      30.19S
$$



USA.gov is the U.S. government's official web portal to all federal, state and local government web resources and services.